| time (UTC) | temp C | wind direction | speed KPH | gust KPH | rain 1hr cm | rain 24hr cm | rain mn cm | humidity % | barometer mb |
| 20260510094506 | 17 | 225 | 0.0 | 0.0 | 0.00 | 0.00 | 0.00 | 72 | 1016.1 |
| 20260510093004 | 18 | 225 | 0.0 | 0.0 | 0.00 | 0.00 | 0.00 | 70 | 1015.6 |
| 20260510091504 | 18 | 225 | 0.0 | 0.0 | 0.00 | 0.00 | 0.00 | 68 | 1015.1 |
| 20260510090005 | 18 | 237 | 0.0 | 3.2 | 0.00 | 0.00 | 0.00 | 67 | 1014.8 |
| 20260510084505 | 18 | 188 | 0.0 | 0.0 | 0.00 | 0.00 | 0.00 | 64 | 1014.4 |
| 20260510083117 | 18 | 275 | 0.0 | 0.0 | 0.00 | 0.00 | 0.00 | 63 | 1014.7 |
| 20260510081619 | 18 | 240 | 0.0 | 1.6 | 0.00 | 0.00 | 0.00 | 63 | 1014.9 |
| 20260510080057 | 18 | 178 | 0.0 | 0.0 | 0.00 | 0.00 | 0.00 | 65 | 1014.6 |
| 20260510074554 | 17 | 168 | 0.0 | 0.0 | 0.00 | 0.00 | 0.00 | 66 | 1014.5 |
| 20260510073053 | 17 | 167 | 0.0 | 0.0 | 0.00 | 0.00 | 0.00 | 67 | 1014.7 |
| 20260510071550 | 17 | 167 | 0.0 | 0.0 | 0.00 | 0.00 | 0.00 | 68 | 1014.9 |
| 20260510070048 | 17 | 167 | 0.0 | 0.0 | 0.00 | 0.00 | 0.00 | 68 | 1015.0 |
| 20260510064547 | 17 | 167 | 0.0 | 0.0 | 0.00 | 0.00 | 0.00 | 68 | 1015.2 |
| 20260510063045 | 17 | 167 | 0.0 | 0.0 | 0.00 | 0.00 | 0.00 | 70 | 1015.5 |
| 20260510061552 | 16 | 167 | 0.0 | 0.0 | 0.00 | 0.00 | 0.00 | 71 | 1015.7 |
| 20260510060043 | 16 | 167 | 0.0 | 0.0 | 0.00 | 0.00 | 0.00 | 72 | 1015.8 |
| 20260510054533 | 16 | 167 | 0.0 | 0.0 | 0.00 | 0.00 | 0.00 | 73 | 1015.7 |
| 20260510053030 | 15 | 167 | 0.0 | 0.0 | 0.00 | 0.00 | 0.00 | 73 | 1015.4 |
| 20260510051528 | 15 | 168 | 0.0 | 0.0 | 0.00 | 0.00 | 0.00 | 73 | 1015.4 |
| 20260510050024 | 15 | 167 | 0.0 | 0.0 | 0.00 | 0.00 | 0.00 | 71 | 1015.1 |
| 20260510044523 | 15 | 167 | 0.0 | 0.0 | 0.00 | 0.00 | 0.00 | 69 | 1015.1 |
| 20260510043024 | 16 | 168 | 0.0 | 0.0 | 0.00 | 0.00 | 0.00 | 69 | 1015.1 |
| 20260510041532 | 16 | 167 | 0.0 | 0.0 | 0.00 | 0.00 | 0.00 | 70 | 1015.1 |
| 20260510040022 | 16 | 167 | 0.0 | 0.0 | 0.00 | 0.00 | 0.00 | 69 | 1015.2 |
| 20260510034524 | 16 | 167 | 0.0 | 0.0 | 0.00 | 0.00 | 0.00 | 65 | 1015.1 |
| 20260510033017 | 17 | 168 | 0.0 | 0.0 | 0.00 | 0.00 | 0.00 | 65 | 1014.6 |
| 20260510031515 | 16 | 166 | 0.0 | 0.0 | 0.00 | 0.00 | 0.00 | 63 | 1014.3 |
| 20260510030014 | 17 | 166 | 0.0 | 0.0 | 0.00 | 0.00 | 0.00 | 64 | 1014.0 |
| 20260510024513 | 17 | 166 | 0.0 | 0.0 | 0.00 | 0.00 | 0.00 | 63 | 1013.8 |
| 20260510023013 | 17 | 166 | 0.0 | 0.0 | 0.00 | 0.00 | 0.00 | 60 | 1013.5 |
| 20260510021514 | 18 | 166 | 0.0 | 0.0 | 0.00 | 0.00 | 0.00 | 59 | 1013.2 |
| 20260510020012 | 18 | 166 | 0.0 | 0.0 | 0.00 | 0.00 | 0.00 | 58 | 1012.7 |
| 20260510014513 | 20 | 166 | 0.0 | 0.0 | 0.00 | 0.00 | 0.00 | 57 | 1012.5 |
| 20260510013011 | 21 | 166 | 0.0 | 0.0 | 0.00 | 0.00 | 0.00 | 56 | 1012.3 |
| 20260510011510 | 21 | 166 | 0.0 | 0.0 | 0.00 | 0.00 | 0.00 | 52 | 1012.2 |
| 20260510010009 | 22 | 166 | 0.0 | 0.0 | 0.00 | 0.10 | 0.00 | 49 | 1011.9 |
| 20260510004508 | 23 | 166 | 0.0 | 0.0 | 0.00 | 0.10 | 0.00 | 46 | 1011.9 |
| 20260510003008 | 25 | 222 | 0.0 | 0.0 | 0.00 | 0.10 | 0.00 | 44 | 1011.8 |
| 20260510001507 | 26 | 222 | 0.0 | 0.0 | 0.00 | 0.10 | 0.00 | 40 | 1011.9 |
| 20260510000006 | 28 | 222 | 0.0 | 1.6 | 0.00 | 0.10 | 0.00 | 35 | 1011.9 |
| 20260509234505 | 29 | 219 | 0.0 | 8.0 | 0.00 | 0.10 | 0.00 | 33 | 1011.9 |
| 20260509233005 | 30 | 228 | 0.0 | 3.2 | 0.00 | 0.10 | 0.00 | 32 | 1012.1 |
| 20260509231503 | 30 | 211 | 0.0 | 4.8 | 0.00 | 0.10 | 0.00 | 31 | 1012.1 |
| 20260509230003 | 30 | 208 | 0.0 | 3.2 | 0.00 | 0.10 | 0.00 | 33 | 1012.0 |
| 20260509224504 | 30 | 162 | 0.0 | 6.4 | 0.00 | 0.10 | 0.00 | 34 | 1012.1 |
| 20260509223002 | 29 | 201 | 1.6 | 4.8 | 0.00 | 0.10 | 0.00 | 33 | 1012.2 |
| 20260509221501 | 30 | 211 | 0.0 | 6.4 | 0.00 | 0.10 | 0.00 | 31 | 1012.1 |
| 20260509220059 | 30 | 166 | 0.0 | 6.4 | 0.00 | 0.10 | 0.00 | 31 | 1012.1 |
| 20260509214559 | 30 | 172 | 1.6 | 4.8 | 0.00 | 0.10 | 0.00 | 31 | 1012.1 |
| 20260509213056 | 30 | 228 | 0.0 | 3.2 | 0.00 | 0.10 | 0.00 | 32 | 1012.2 |
| 20260509211555 | 30 | 185 | 1.6 | 4.8 | 0.00 | 0.10 | 0.00 | 32 | 1012.3 |
| 20260509210106 | 30 | 308 | 0.0 | 6.4 | 0.00 | 0.10 | 0.00 | 32 | 1012.6 |
| 20260509204559 | 30 | 206 | 1.6 | 6.4 | 0.00 | 0.10 | 0.00 | 32 | 1012.7 |
| 20260509203052 | 30 | 181 | 0.0 | 8.0 | 0.00 | 0.10 | 0.00 | 33 | 1012.9 |
| 20260509201551 | 30 | 162 | 0.0 | 3.2 | 0.00 | 0.10 | 0.00 | 32 | 1012.9 |
| 20260509200056 | 30 | 129 | 0.0 | 9.7 | 0.00 | 0.10 | 0.00 | 33 | 1013.0 |
| 20260509194548 | 30 | 302 | 0.0 | 3.2 | 0.00 | 0.10 | 0.00 | 30 | 1013.0 |
| 20260509193045 | 29 | 345 | 0.0 | 3.2 | 0.00 | 0.10 | 0.00 | 32 | 1013.1 |
| 20260509191544 | 28 | 9 | 0.0 | 1.6 | 0.00 | 0.10 | 0.00 | 33 | 1013.3 |
| 20260509190052 | 28 | 194 | 0.0 | 4.8 | 0.00 | 0.10 | 0.00 | 38 | 1013.4 |
| 20260509184549 | 28 | 222 | 0.0 | 6.4 | 0.00 | 0.10 | 0.00 | 34 | 1013.5 |
| 20260509183037 | 27 | 207 | 0.0 | 6.4 | 0.00 | 0.10 | 0.00 | 44 | 1013.5 |
| 20260509181543 | 27 | 201 | 1.6 | 6.4 | 0.00 | 0.10 | 0.00 | 41 | 1013.6 |
| 20260509180033 | 27 | 283 | 1.6 | 6.4 | 0.00 | 0.10 | 0.00 | 39 | 1013.7 |
| 20260509174535 | 27 | 159 | 0.0 | 8.0 | 0.00 | 0.10 | 0.00 | 37 | 1013.7 |
| 20260509173028 | 26 | 242 | 3.2 | 8.0 | 0.00 | 0.10 | 0.00 | 43 | 1013.8 |
| 20260509171525 | 26 | 230 | 0.0 | 3.2 | 0.00 | 0.10 | 0.00 | 49 | 1014.0 |
| 20260509170022 | 25 | 272 | 1.6 | 4.8 | 0.00 | 0.10 | 0.00 | 52 | 1013.9 |
| 20260509164519 | 25 | 299 | 1.6 | 4.8 | 0.00 | 0.10 | 0.00 | 53 | 1013.8 |
| 20260509163018 | 24 | 226 | 0.0 | 3.2 | 0.00 | 0.10 | 0.00 | 56 | 1013.9 |
| 20260509161513 | 23 | 177 | 0.0 | 4.8 | 0.00 | 0.10 | 0.00 | 58 | 1014.0 |
| 20260509160009 | 23 | 109 | 0.0 | 4.8 | 0.00 | 0.10 | 0.00 | 64 | 1014.0 |
| 20260509154505 | 22 | 219 | 0.0 | 3.2 | 0.00 | 0.10 | 0.00 | 66 | 1014.0 |
| 20260509153001 | 22 | 267 | 0.0 | 4.8 | 0.00 | 0.10 | 0.00 | 64 | 1014.1 |
| 20260509151558 | 21 | 257 | 0.0 | 3.2 | 0.00 | 0.10 | 0.00 | 70 | 1014.1 |
| 20260509150056 | 21 | 180 | 0.0 | 3.2 | 0.00 | 0.10 | 0.00 | 73 | 1013.9 |
| 20260509144549 | 20 | 232 | 0.0 | 6.4 | 0.00 | 0.10 | 0.00 | 75 | 1014.1 |
| 20260509143051 | 19 | 262 | 1.6 | 0.0 | 0.00 | 0.00 | 0.00 | 77 | 1013.9 |
| 20260509141548 | 18 | 220 | 1.6 | 6.4 | 0.00 | 0.10 | 0.00 | 81 | 1014.0 |
| 20260509140047 | 17 | 192 | 0.0 | 3.2 | 0.00 | 0.10 | 0.00 | 88 | 1013.8 |
| 20260509134536 | 16 | 206 | 0.0 | 1.6 | 0.00 | 0.10 | 0.00 | 90 | 1013.6 |
| 20260509133030 | 15 | 194 | 0.0 | 1.6 | 0.00 | 0.10 | 0.00 | 91 | 1013.6 |
| 20260509131526 | 15 | 234 | 0.0 | 0.0 | 0.00 | 0.10 | 0.00 | 91 | 1013.4 |
| 20260509130025 | 13 | 206 | 0.0 | 0.0 | 0.00 | 0.10 | 0.00 | 91 | 1013.5 |
| 20260509124531 | 13 | 204 | 0.0 | 0.0 | 0.00 | 0.10 | 0.00 | 91 | 1013.5 |
| 20260509123032 | 12 | 199 | 0.0 | 0.0 | 0.00 | 0.10 | 0.00 | 91 | 1013.4 |
| 20260509121522 | 11 | 215 | 0.0 | 0.0 | 0.00 | 0.10 | 0.00 | 91 | 1013.2 |
| 20260509120020 | 11 | 215 | 0.0 | 0.0 | 0.00 | 0.10 | 0.00 | 90 | 1013.1 |
| 20260509114518 | 10 | 215 | 0.0 | 0.0 | 0.00 | 0.10 | 0.00 | 89 | 1013.0 |
| 20260509113016 | 10 | 215 | 0.0 | 0.0 | 0.00 | 0.10 | 0.00 | 89 | 1012.9 |
| 20260509111523 | 11 | 215 | 0.0 | 0.0 | 0.00 | 0.10 | 0.00 | 89 | 1012.5 |
| 20260509110014 | 11 | 215 | 0.0 | 0.0 | 0.00 | 0.10 | 0.00 | 89 | 1012.6 |
| 20260509104524 | 11 | 215 | 0.0 | 0.0 | 0.00 | 0.10 | 0.00 | 88 | 1012.5 |
| 20260509103010 | 11 | 215 | 0.0 | 0.0 | 0.00 | 0.10 | 0.00 | 88 | 1012.3 |
| 20260509101510 | 11 | 215 | 0.0 | 0.0 | 0.00 | 0.10 | 0.00 | 88 | 1012.2 |
| 20260509100006 | 11 | 215 | 0.0 | 0.0 | 0.00 | 0.10 | 0.00 | 88 | 1012.3 |